Location: Ravensburg
(47.7866°N, 9.6124°E)
Time: 19:42:29
(UTC+01:00)

ISS - Pass Details

Date: 12 November 2025
Orbit: 416 x 421 km, 51.6° (Epoch: 05 December)

Event Time Altitude Azimuth Distance (km) Brightness Sun altitude
Rises 18:51:15 0° 211° (SSW) 2,356 0.6 -20.7°
Reaches altitude 10° 18:53:34 10° 198° (SSW) 1,494 -0.7 -21.1°
Enters shadow 18:54:46 17° 182° (S) 1,129 -1.6 -21.3°
